| time (UTC) | temp F | wind direction | speed MPH | gust MPH | rain 1hr in | rain 24hr in | rain mn in | humidity % | barometer mb |
| 20260831094419 | 66 | 357 | 0.0 | 5.0 | 0.00 | 0.00 | 0.08 | 92 | 1017.8 |
| 20260831093740 | 66 | 356 | 0.0 | 4.0 | 0.00 | 0.00 | 0.08 | 92 | 1017.7 |
| 20260831093059 | 66 | 357 | 0.0 | 5.0 | 0.00 | 0.00 | 0.08 | 92 | 1017.7 |
| 20260831092420 | 66 | 359 | 0.0 | 5.0 | 0.00 | 0.00 | 0.08 | 92 | 1017.7 |
| 20260831091742 | 0 | 357 | 0.0 | 0.0 | 0.00 | 0.00 | 0.08 | ||
| 20260831090617 | 66 | 356 | 0.0 | 0.0 | 0.00 | 0.00 | 0.08 | 92 | 1017.7 |
| 20260831085938 | 65 | 358 | 0.0 | 0.0 | 0.00 | 0.00 | 0.08 | 92 | 1017.8 |
| 20260831085257 | 66 | 356 | 0.0 | 0.0 | 0.00 | 0.00 | 0.08 | 92 | 1017.9 |
| 20260831084616 | 66 | 355 | 0.0 | 0.0 | 0.00 | 0.00 | 0.08 | 92 | 1018.2 |
| 20260831083938 | 0 | 356 | 0.0 | 0.0 | 0.00 | 0.00 | 0.08 | ||
| 20260831083144 | 66 | 357 | 0.0 | 0.0 | 0.00 | 0.00 | 0.08 | 92 | 1018.1 |
| 20260831082504 | 65 | 356 | 0.0 | 0.0 | 0.00 | 0.00 | 0.08 | 92 | 1018.2 |
| 20260831081824 | 66 | 357 | 0.0 | 0.0 | 0.00 | 0.00 | 0.08 | 92 | 1018.1 |
| 20260831081145 | 0 | 355 | 0.0 | 0.0 | 0.00 | 0.00 | 0.08 | ||
| 20260831080355 | 66 | 355 | 0.0 | 0.0 | 0.00 | 0.00 | 0.08 | 92 | 1018.3 |
| 20260831075715 | 66 | 355 | 0.0 | 0.0 | 0.00 | 0.00 | 0.08 | 93 | 1018.4 |
| 20260831075035 | 66 | 356 | 0.0 | 0.0 | 0.00 | 0.00 | 0.07 | 93 | 1018.5 |
| 20260831074137 | 66 | 357 | 0.0 | 6.0 | 0.00 | 0.00 | 0.07 | 93 | 1018.5 |
| 20260831073457 | 0 | 352 | 0.0 | 3.0 | 0.00 | 0.00 | 0.07 | ||
| 20260831072707 | 66 | 360 | 0.0 | 3.0 | 0.00 | 0.00 | 0.07 | 95 | 1018.6 |
| 20260831072026 | 66 | 359 | 0.0 | 0.0 | 0.00 | 0.00 | 0.07 | 95 | 1018.8 |
| 20260831071347 | 66 | 355 | 0.0 | 0.0 | 0.00 | 0.00 | 0.07 | 95 | 1018.7 |
| 20260831070706 | 66 | 356 | 0.0 | 4.0 | 0.00 | 0.00 | 0.07 | 95 | 1018.8 |
| 20260831070027 | 0 | 357 | 0.0 | 2.0 | 0.00 | 0.00 | 0.06 | ||
| 20260831065237 | 66 | 358 | 0.0 | 0.0 | 0.00 | 0.00 | 0.06 | 95 | 1018.8 |
| 20260831064558 | 0 | 358 | 0.0 | 0.0 | 0.00 | 0.00 | 0.06 | ||
| 20260831063543 | 66 | 356 | 0.0 | 0.0 | 0.00 | 0.00 | 0.06 | 95 | 1018.9 |
| 20260831062903 | 66 | 356 | 0.0 | 0.0 | 0.00 | 0.00 | 0.06 | 95 | 1018.9 |
| 20260831062225 | 66 | 358 | 0.0 | 0.0 | 0.00 | 0.00 | 0.06 | 94 | 1018.8 |
| 20260831061544 | 66 | 358 | 0.0 | 0.0 | 0.00 | 0.00 | 0.06 | 94 | 1018.9 |
| 20260831060903 | 66 | 356 | 0.0 | 0.0 | 0.00 | 0.00 | 0.05 | 94 | 1019.0 |
| 20260831060224 | 0 | 356 | 0.0 | 0.0 | 0.00 | 0.00 | 0.05 | ||
| 20260831055434 | 67 | 356 | 0.0 | 0.0 | 0.00 | 0.00 | 0.04 | 94 | 1019.0 |
| 20260831054754 | 0 | 352 | 0.0 | 0.0 | 0.00 | 0.00 | 0.04 | ||
| 20260831053858 | 66 | 357 | 0.0 | 0.0 | 0.00 | 0.00 | 0.04 | 95 | 1019.0 |
| 20260831053220 | 66 | 357 | 0.0 | 0.0 | 0.00 | 0.00 | 0.04 | 95 | 1019.0 |
| 20260831052539 | 67 | 357 | 0.0 | 0.0 | 0.00 | 0.00 | 0.04 | 95 | 1019.0 |
| 20260831051900 | 0 | 358 | 0.0 | 0.0 | 0.00 | 0.00 | 0.04 | ||
| 20260831051111 | 66 | 358 | 0.0 | 0.0 | 0.00 | 0.00 | 0.04 | 96 | 1019.0 |
| 20260831050431 | 0 | 0 | 0.0 | 0.0 | 0.00 | 0.00 | 0.04 | ||
| 20260831045642 | 66 | 356 | 0.0 | 0.0 | 0.00 | 0.00 | 0.04 | 96 | 1019.1 |
| 20260831045002 | 66 | 358 | 0.0 | 0.0 | 0.00 | 0.00 | 0.04 | 97 | 1019.1 |
| 20260831044323 | 66 | 357 | 0.0 | 0.0 | 0.00 | 0.00 | 0.04 | 96 | 1019.1 |
| 20260831043642 | 0 | 357 | 0.0 | 0.0 | 0.00 | 0.00 | 0.04 | ||
| 20260831042850 | 0 | 356 | 0.0 | 0.0 | 0.00 | 0.00 | 0.04 | ||
| 20260831042059 | 66 | 353 | 0.0 | 0.0 | 0.00 | 0.00 | 0.04 | 96 | 1019.1 |
| 20260831041421 | 0 | 360 | 0.0 | 0.0 | 0.00 | 0.00 | 0.04 | ||
| 20260831040522 | 66 | 355 | 0.0 | 0.0 | 0.00 | 0.00 | 0.04 | 96 | 1019.0 |
| 20260831035842 | 66 | 356 | 0.0 | 0.0 | 0.00 | 0.00 | 0.04 | 97 | 1019.1 |
| 20260831035202 | 66 | 356 | 0.0 | 0.0 | 0.00 | 0.00 | 0.04 | 96 | 1019.1 |
| 20260831034522 | 0 | 354 | 0.0 | 0.0 | 0.00 | 0.00 | 0.04 | ||
| 20260831033621 | 0 | 357 | 0.0 | 0.0 | 0.00 | 0.00 | 0.04 | ||
| 20260831032831 | 66 | 356 | 0.0 | 0.0 | 0.00 | 0.00 | 0.03 | 96 | 1019.2 |
| 20260831032153 | 0 | 353 | 0.0 | 0.0 | 0.00 | 0.00 | 0.02 | ||
| 20260831031139 | 66 | 356 | 0.0 | 0.0 | 0.00 | 0.00 | 0.01 | 95 | 1019.4 |
| 20260831030459 | 66 | 356 | 0.0 | 0.0 | 0.00 | 0.00 | 0.18 | 94 | 1019.4 |
| 20260831025820 | 66 | 357 | 0.0 | 1.0 | 0.00 | 0.00 | 0.18 | 94 | 1019.5 |
| 20260831025140 | 66 | 358 | 0.0 | 0.0 | 0.00 | 0.00 | 0.18 | 94 | 1019.5 |
| 20260831024459 | 66 | 356 | 0.0 | 0.0 | 0.00 | 0.00 | 0.17 | 94 | 1019.4 |
| 20260831023819 | 66 | 357 | 0.0 | 0.0 | 0.00 | 0.00 | 0.17 | 94 | 1019.4 |
| 20260831023139 | 66 | 355 | 0.0 | 0.0 | 0.00 | 0.00 | 0.16 | 94 | 1019.4 |
| 20260831022459 | 66 | 355 | 0.0 | 0.0 | 0.00 | 0.00 | 0.16 | 93 | 1019.4 |
| 20260831021820 | 0 | 351 | 0.0 | 0.0 | 0.00 | 0.00 | 0.14 | ||
| 20260831020918 | 66 | 357 | 0.0 | 0.0 | 0.00 | 0.00 | 0.13 | 92 | 1019.6 |
| 20260831020239 | 0 | 354 | 0.0 | 0.0 | 0.00 | 0.00 | 0.11 | ||
| 20260831015421 | 0 | 357 | 0.0 | 0.0 | 0.00 | 0.00 | 0.10 | ||
| 20260831014631 | 67 | 357 | 0.0 | 0.0 | 0.00 | 0.00 | 0.10 | 90 | 1019.5 |
| 20260831013951 | 67 | 358 | 0.0 | 0.0 | 0.00 | 0.00 | 0.10 | 91 | 1019.6 |
| 20260831013312 | 67 | 355 | 0.0 | 0.0 | 0.00 | 0.00 | 0.10 | 91 | 1019.6 |
| 20260831012630 | 67 | 355 | 0.0 | 0.0 | 0.00 | 0.00 | 0.10 | 91 | 1019.4 |
| 20260831011951 | 67 | 357 | 0.0 | 0.0 | 0.00 | 0.00 | 0.10 | 91 | 1019.4 |
| 20260831011312 | 0 | 357 | 0.0 | 0.0 | 0.00 | 0.00 | 0.09 | ||
| 20260831010411 | 0 | 354 | 0.0 | 0.0 | 0.00 | 0.00 | 0.09 | ||
| 20260831005623 | 66 | 354 | 0.0 | 0.0 | 0.00 | 0.00 | 0.09 | 91 | 1019.3 |
| 20260831004943 | 67 | 356 | 0.0 | 0.0 | 0.00 | 0.00 | 0.09 | 91 | 1019.3 |
| 20260831004304 | 0 | 357 | 0.0 | 0.0 | 0.00 | 0.00 | 0.08 | ||
| 20260831003512 | 66 | 356 | 0.0 | 0.0 | 0.00 | 0.00 | 0.08 | 91 | 1019.2 |
| 20260831002831 | 66 | 356 | 0.0 | 0.0 | 0.00 | 0.00 | 0.08 | 91 | 1019.0 |
| 20260831002151 | 66 | 358 | 0.0 | 0.0 | 0.00 | 0.00 | 0.08 | 91 | 1019.0 |
| 20260831001512 | 66 | 355 | 0.0 | 0.0 | 0.00 | 0.00 | 0.08 | 90 | 1018.9 |
| 20260831000832 | 0 | 355 | 0.0 | 0.0 | 0.00 | 0.00 | 0.08 | ||
| 20260830235824 | 0 | 357 | 0.0 | 0.0 | 0.00 | 0.00 | 0.08 | ||
| 20260830235035 | 66 | 357 | 0.0 | 0.0 | 0.00 | 0.00 | 0.08 | 90 | 1018.8 |
| 20260830234355 | 66 | 360 | 0.0 | 0.0 | 0.00 | 0.00 | 0.08 | 90 | 1018.8 |
| 20260830233716 | 66 | 360 | 0.0 | 0.0 | 0.00 | 0.00 | 0.08 | 89 | 1018.8 |
| 20260830232926 | 66 | 356 | 0.0 | 0.0 | 0.00 | 0.00 | 0.08 | 89 | 1018.7 |
| 20260830232245 | 66 | 355 | 0.0 | 0.0 | 0.00 | 0.00 | 0.08 | 88 | 1018.7 |
| 20260830231605 | 66 | 354 | 0.0 | 0.0 | 0.00 | 0.00 | 0.08 | 88 | 1018.7 |
| 20260830230925 | 66 | 358 | 0.0 | 0.0 | 0.00 | 0.00 | 0.08 | 88 | 1018.6 |
| 20260830230246 | 66 | 358 | 0.0 | 0.0 | 0.00 | 0.00 | 0.08 | 87 | 1018.7 |
| 20260830225605 | 66 | 357 | 0.0 | 0.0 | 0.00 | 0.00 | 0.08 | 87 | 1018.7 |
| 20260830224925 | 66 | 354 | 0.0 | 0.0 | 0.00 | 0.00 | 0.08 | 86 | 1018.7 |
| 20260830224250 | 66 | 356 | 0.0 | 0.0 | 0.00 | 0.00 | 0.08 | 86 | 1018.8 |
| 20260830223611 | 66 | 356 | 0.0 | 0.0 | 0.00 | 0.00 | 0.07 | 85 | 1018.8 |
| 20260830222925 | 66 | 358 | 0.0 | 0.0 | 0.00 | 0.00 | 0.07 | 83 | 1018.8 |
| 20260830222217 | 67 | 356 | 0.0 | 0.0 | 0.00 | 0.00 | 0.07 | 82 | 1018.8 |
| 20260830221537 | 67 | 354 | 0.0 | 0.0 | 0.00 | 0.00 | 0.07 | 82 | 1018.8 |
| 20260830220858 | 0 | 355 | 0.0 | 0.0 | 0.00 | 0.00 | 0.07 | ||
| 20260830220111 | 67 | 355 | 0.0 | 0.0 | 0.00 | 0.00 | 0.07 | 81 | 1018.8 |
| 20260830215431 | 0 | 354 | 0.0 | 0.0 | 0.00 | 0.00 | 0.07 | ||
| 20260830214410 | 0 | 351 | 0.0 | 0.0 | 0.00 | 0.00 | 0.07 | ||
| 20260830213705 | 68 | 354 | 0.0 | 0.0 | 0.00 | 0.00 | 0.07 | 78 | 1018.8 |
| 20260830213024 | 68 | 356 | 0.0 | 0.0 | 0.00 | 0.00 | 0.07 | 78 | 1018.7 |
| 20260830212344 | 0 | 351 | 0.0 | 0.0 | 0.00 | 0.00 | 0.07 | ||
| 20260830211551 | 68 | 352 | 0.0 | 0.0 | 0.00 | 0.00 | 0.07 | 78 | 1018.7 |
| 20260830210912 | 0 | 359 | 0.0 | 0.0 | 0.00 | 0.00 | 0.07 | ||
| 20260830210011 | 69 | 356 | 0.0 | 0.0 | 0.00 | 0.00 | 0.07 | 73 | 1018.9 |
| 20260830205335 | 68 | 355 | 0.0 | 0.0 | 0.00 | 0.00 | 0.07 | 73 | 1018.9 |
| 20260830204650 | 69 | 354 | 0.0 | 0.0 | 0.00 | 0.00 | 0.07 | 73 | 1018.9 |
| 20260830204011 | 0 | 355 | 0.0 | 0.0 | 0.00 | 0.00 | 0.07 | ||
| 20260830203223 | 0 | 354 | 0.0 | 0.0 | 0.00 | 0.00 | 0.07 | ||
| 20260830202321 | 69 | 356 | 0.0 | 0.0 | 0.00 | 0.00 | 0.07 | 75 | 1018.9 |
| 20260830201641 | 69 | 356 | 0.0 | 4.0 | 0.00 | 0.00 | 0.07 | 77 | 1018.9 |
| 20260830201002 | 0 | 354 | 0.0 | 4.0 | 0.00 | 0.00 | 0.07 | ||
| 20260830200213 | 0 | 356 | 0.0 | 0.0 | 0.00 | 0.00 | 0.07 | ||
| 20260830195424 | 70 | 358 | 0.0 | 4.0 | 0.00 | 0.00 | 0.07 | 72 | 1019.1 |
| 20260830194749 | 0 | 352 | 0.0 | 0.0 | 0.00 | 0.00 | 0.07 | ||
| 20260830193954 | 71 | 353 | 0.0 | 0.0 | 0.00 | 0.00 | 0.07 | 68 | 1019.1 |
| 20260830193314 | 0 | 357 | 0.0 | 0.0 | 0.00 | 0.00 | 0.07 | ||
| 20260830192525 | 70 | 350 | 0.0 | 0.0 | 0.00 | 0.00 | 0.07 | 70 | 1019.3 |
| 20260830191737 | 0 | 355 | 0.0 | 0.0 | 0.00 | 0.00 | 0.07 | ||
| 20260830190947 | 71 | 356 | 0.0 | 0.0 | 0.00 | 0.00 | 0.07 | 72 | 1019.3 |
| 20260830190309 | 72 | 356 | 0.0 | 0.0 | 0.00 | 0.00 | 0.07 | 70 | 1019.2 |
| 20260830185627 | 72 | 353 | 0.0 | 0.0 | 0.00 | 0.00 | 0.07 | 70 | 1019.1 |
| 20260830184953 | 0 | 358 | 0.0 | 0.0 | 0.00 | 0.00 | 0.07 | ||
| 20260830184204 | 71 | 357 | 0.0 | 0.0 | 0.00 | 0.00 | 0.07 | 73 | 1019.5 |
| 20260830183520 | 0 | 355 | 0.0 | 0.0 | 0.00 | 0.00 | 0.07 | ||
| 20260830182727 | 71 | 359 | 0.0 | 0.0 | 0.00 | 0.00 | 0.07 | 75 | 1019.6 |
| 20260830182048 | 0 | 356 | 0.0 | 0.0 | 0.00 | 0.00 | 0.07 | ||
| 20260830181256 | 0 | 356 | 0.0 | 0.0 | 0.00 | 0.00 | 0.07 | ||
| 20260830180354 | 68 | 356 | 0.0 | 0.0 | 0.00 | 0.00 | 0.07 | 83 | 1019.8 |
| 20260830175714 | 0 | 356 | 0.0 | 0.0 | 0.00 | 0.00 | 0.07 | ||
| 20260830174810 | 0 | 354 | 0.0 | 0.0 | 0.00 | 0.00 | 0.07 | ||
| 20260830174021 | 68 | 354 | 0.0 | 0.0 | 0.00 | 0.00 | 0.07 | 85 | 1019.7 |
| 20260830173340 | 68 | 354 | 0.0 | 0.0 | 0.00 | 0.00 | 0.07 | 85 | 1019.6 |
| 20260830172701 | 68 | 351 | 0.0 | 3.0 | 0.00 | 0.00 | 0.07 | 85 | 1019.6 |
| 20260830172021 | 0 | 355 | 0.0 | 3.0 | 0.00 | 0.00 | 0.07 | ||
| 20260830171232 | 68 | 355 | 0.0 | 0.0 | 0.00 | 0.00 | 0.07 | 85 | 1019.5 |
| 20260830170554 | 0 | 359 | 0.0 | 0.0 | 0.00 | 0.00 | 0.07 | ||
| 20260830165805 | 68 | 355 | 0.0 | 2.0 | 0.00 | 0.00 | 0.07 | 85 | 1019.4 |
| 20260830165123 | 0 | 360 | 0.0 | 2.0 | 0.00 | 0.00 | 0.07 | ||
| 20260830164334 | 69 | 355 | 0.0 | 2.0 | 0.00 | 0.00 | 0.07 | 83 | 1019.5 |
| 20260830163654 | 69 | 355 | 0.0 | 0.0 | 0.00 | 0.00 | 0.07 | 82 | 1019.4 |
| 20260830163016 | 70 | 358 | 0.0 | 0.0 | 0.00 | 0.00 | 0.07 | 82 | 1019.5 |
| 20260830162230 | 69 | 357 | 0.0 | 0.0 | 0.00 | 0.00 | 0.07 | 82 | 1019.6 |
| 20260830161544 | 69 | 355 | 0.0 | 0.0 | 0.00 | 0.00 | 0.07 | 82 | 1019.6 |
| 20260830160905 | 70 | 358 | 0.0 | 0.0 | 0.00 | 0.00 | 0.07 | 84 | 1019.7 |
| 20260830160225 | 68 | 358 | 0.0 | 0.0 | 0.00 | 0.00 | 0.07 | 85 | 1019.8 |
| 20260830155545 | 68 | 357 | 0.0 | 0.0 | 0.00 | 0.00 | 0.06 | 86 | 1020.1 |
| 20260830154534 | 0 | 355 | 0.0 | 0.0 | 0.00 | 0.00 | 0.06 | ||
| 20260830153409 | 66 | 356 | 0.0 | 5.0 | 0.00 | 0.00 | 0.06 | 88 | 1020.2 |
| 20260830152729 | 66 | 358 | 0.0 | 10.0 | 0.00 | 0.00 | 0.04 | 87 | 1020.2 |
| 20260830152049 | 67 | 353 | 4.0 | 10.0 | 0.00 | 0.00 | 0.02 | 85 | 1020.1 |
| 20260830151425 | 0 | 359 | 0.0 | 4.0 | 0.00 | 0.00 | 0.00 | ||
| 20260830150622 | 0 | 0 | 2.0 | 2.0 | 0.00 | 0.00 | 0.00 | ||
| 20260830145829 | 70 | 354 | 0.0 | 6.0 | 0.00 | 0.00 | 0.00 | 62 | 1019.6 |
| 20260830145149 | 70 | 356 | 0.0 | 0.0 | 0.00 | 0.00 | 0.00 | 61 | 1019.6 |
| 20260830144509 | 70 | 356 | 0.0 | 3.0 | 0.00 | 0.00 | 0.00 | 60 | 1019.6 |
| 20260830143829 | 70 | 356 | 1.0 | 3.0 | 0.00 | 0.00 | 0.00 | 60 | 1019.3 |
| 20260830143149 | 70 | 355 | 0.0 | 0.0 | 0.00 | 0.00 | 0.00 | 61 | 1019.3 |
| 20260830142509 | 70 | 355 | 0.0 | 0.0 | 0.00 | 0.00 | 0.00 | 61 | 1019.0 |
| 20260830141831 | 70 | 354 | 0.0 | 4.0 | 0.00 | 0.00 | 0.00 | 60 | 1018.9 |
| 20260830141150 | 0 | 355 | 1.0 | 3.0 | 0.00 | 0.00 | 0.00 | ||
| 20260830140134 | 71 | 355 | 0.0 | 0.0 | 0.00 | 0.00 | 0.00 | 58 | 1018.9 |
| 20260830135454 | 70 | 355 | 0.0 | 0.0 | 0.00 | 0.00 | 0.00 | 59 | 1019.0 |
| 20260830134814 | 70 | 355 | 0.0 | 0.0 | 0.00 | 0.00 | 0.00 | 59 | 1018.9 |
| 20260830134139 | 70 | 356 | 0.0 | 0.0 | 0.00 | 0.00 | 0.00 | 58 | 1018.9 |
| 20260830133453 | 70 | 355 | 0.0 | 0.0 | 0.00 | 0.00 | 0.00 | 59 | 1018.9 |
| 20260830132815 | 0 | 354 | 0.0 | 0.0 | 0.00 | 0.00 | 0.00 | ||
| 20260830131910 | 70 | 358 | 0.0 | 0.0 | 0.00 | 0.00 | 0.00 | 60 | 1019.0 |
| 20260830131230 | 0 | 354 | 0.0 | 5.0 | 0.00 | 0.00 | 0.00 | ||
| 20260830130439 | 0 | 355 | 2.0 | 7.0 | 0.00 | 0.00 | 0.00 | ||
| 20260830125535 | 69 | 356 | 0.0 | 0.0 | 0.00 | 0.00 | 0.00 | 60 | 1018.8 |
| 20260830124855 | 70 | 355 | 0.0 | 0.0 | 0.00 | 0.00 | 0.00 | 59 | 1018.9 |
| 20260830124215 | 70 | 353 | 0.0 | 0.0 | 0.00 | 0.00 | 0.00 | 59 | 1018.9 |
| 20260830123536 | 70 | 353 | 0.0 | 0.0 | 0.00 | 0.00 | 0.00 | 61 | 1018.9 |
| 20260830122855 | 69 | 353 | 0.0 | 0.0 | 0.00 | 0.00 | 0.00 | 59 | 1018.9 |
| 20260830122215 | 69 | 356 | 0.0 | 0.0 | 0.00 | 0.00 | 0.00 | 59 | 1018.8 |
| 20260830121426 | 69 | 355 | 0.0 | 0.0 | 0.00 | 0.00 | 0.00 | 56 | 1018.9 |
| 20260830120746 | 0 | 356 | 0.0 | 0.0 | 0.00 | 0.00 | 0.00 | ||
| 20260830115955 | 69 | 357 | 0.0 | 0.0 | 0.00 | 0.00 | 0.00 | 57 | 1018.7 |
| 20260830115315 | 69 | 356 | 0.0 | 0.0 | 0.00 | 0.00 | 0.00 | 56 | 1018.6 |
| 20260830114637 | 0 | 0 | 0.0 | 0.0 | 0.00 | 0.00 | 0.00 | ||
| 20260830113846 | 69 | 356 | 0.0 | 0.0 | 0.00 | 0.00 | 0.00 | 59 | 1018.7 |
| 20260830113205 | 68 | 355 | 0.0 | 0.0 | 0.00 | 0.00 | 0.00 | 59 | 1018.7 |
| 20260830112526 | 68 | 355 | 0.0 | 0.0 | 0.00 | 0.00 | 0.00 | 60 | 1018.7 |
| 20260830111845 | 68 | 355 | 0.0 | 0.0 | 0.00 | 0.00 | 0.00 | 60 | 1018.7 |
| 20260830111205 | 68 | 357 | 0.0 | 0.0 | 0.00 | 0.00 | 0.00 | 60 | 1018.8 |
| 20260830110525 | 68 | 356 | 0.0 | 0.0 | 0.00 | 0.00 | 0.00 | 59 | 1018.8 |
| 20260830105845 | 68 | 356 | 0.0 | 0.0 | 0.00 | 0.00 | 0.00 | 59 | 1018.9 |
| 20260830105205 | 68 | 355 | 0.0 | 0.0 | 0.00 | 0.00 | 0.00 | 58 | 1018.9 |
| 20260830104525 | 68 | 357 | 0.0 | 0.0 | 0.00 | 0.00 | 0.00 | 58 | 1018.9 |
| 20260830103737 | 0 | 360 | 0.0 | 0.0 | 0.00 | 0.00 | 0.00 | ||
| 20260830102946 | 68 | 356 | 0.0 | 0.0 | 0.00 | 0.00 | 0.00 | 59 | 1018.9 |
| 20260830102049 | 0 | 356 | 0.0 | 0.0 | 0.00 | 0.00 | 0.00 | ||
| 20260830101230 | 68 | 356 | 0.0 | 0.0 | 0.00 | 0.00 | 0.00 | 58 | 1018.9 |
| 20260830100550 | 0 | 356 | 0.0 | 0.0 | 0.00 | 0.00 | 0.00 | ||
| 20260830095802 | 0 | 355 | 0.0 | 0.0 | 0.00 | 0.00 | 0.00 | ||
| 20260830095013 | 68 | 357 | 0.0 | 0.0 | 0.00 | 0.00 | 0.00 | 57 | 1018.9 |